Regional Weather Roundup
Issued by NWS

Home | Current Version | Previous Version | Graphics & Text | Print | Product List | Glossary On
Versions: 1 2 3 4 5 6 7 8 9 10 11 12 13 14 15 16 17 18 19 20 21 22 23 24 25 26 27 28 29 30 31 32 33 34 35 36 37 38 39 40 41 42 43 44 45 46 47 48 49 50
000
ASUS43 KBIS 281720
RWRND

NORTH DAKOTA REGIONAL WEATHER ROUNDUP
NATIONAL WEATHER SERVICE BISMARCK ND
1200 PM CDT SAT MAR 28 2015

NOTE: "FAIR" INDICATES FEW OR NO CLOUDS BELOW 12,000 FEET WITH NO
SIGNIFICANT WEATHER AND/OR OBSTRUCTIONS TO VISIBILITY.


NDZ001>003-009>011-017-281800-
NORTHWEST NORTH DAKOTA

CITY           SKY/WX    TMP DP  RH WIND       PRES   REMARKS
WILLISTON      SUNNY     61  37  41 S14       29.63F
MINOT          SUNNY     50  36  58 SE13      29.72F
MINOT AFB      SUNNY     46  44  93 SE16      29.71F
$$

NDZ018>021-031>035-040>046-281800-
SOUTHWEST NORTH DAKOTA

CITY           SKY/WX    TMP DP  RH WIND       PRES   REMARKS
BISMARCK       SUNNY     45  33  63 S15       29.85F
DICKINSON      SUNNY     62  37  39 S23       29.71F
GARRISON         N/A     41  35  79 S18       29.76F
HETTINGER ARPT SUNNY     60  36  40 S16G22    29.79F
$$

NDZ004>008-012>016-024-026-027-054-281800-
NORTHEAST NORTH DAKOTA

CITY           SKY/WX    TMP DP  RH WIND       PRES   REMARKS
GRAND FORKS    MOSUNNY   41  27  57 S23G31    29.99F
GRND FRKS AFB  CLOUDY    39  28  64 S18       29.97F
DEVILS LAKE    MOSUNNY   37  30  75 S20G26    29.86F
$$

NDZ022-023-025-028>030-036>039-047>053-281800-
SOUTHEAST NORTH DAKOTA

CITY           SKY/WX    TMP DP  RH WIND       PRES   REMARKS
FARGO          MOSUNNY   44  27  51 S22       30.04F
JAMESTOWN      SUNNY     37  31  78 S21       29.93F
$$



USA.gov is the U.S. government's official web portal to all federal, state and local government web resources and services.